Location: Chiroubles
(46.1812°N, 4.6660°E)
Time: 17:58:37
(UTC+00:00)

FALCON 9 DEB - Pass Details

Date: 15 August 2020
Orbit: 427 x 441 km, 53.0° (Epoch: 23 September)

Event Time Altitude Azimuth Distance (km) Brightness Sun altitude
Rises 19:23:56 0° 258° (WSW) 2,422 7.8 -6.2°
Reaches altitude 10° 19:26:07 10° 265° (W) 1,556 6.9 -6.6°
Maximum altitude 19:29:29 44° 338° (NNW) 625 4.4 -7.1°
Drops below altitude 10° 19:32:52 10° 53° (NE) 1,563 5.7 -7.6°
Sets 19:35:04 0° 60° (ENE) 2,435 6.6 -7.9°
